Powrót do katalogu

COSMOS 1898

AktywnyMilitariaLEO
NORAD 18585·PAYLOAD·🇷🇺 Russia

Wystrzelony Dec 1, 1987 z Plesetsk Cosmodrome

Loading…

Następne Przeloty (najbliższe 24 godziny)

TLE

ŚwieżeSource: Space-Track

Epoka: Sep 14, 2026, 19:57 UTC

1 18585U 87098A   26257.83192240  .00000080  00000-0  37581-4 0  9996
2 18585  74.0052 306.8588 0021967 281.4008  78.4676 14.34592448 28285

Śledź COSMOS 1898 w czasie rzeczywistym z AllMySat

Download on the App Store